TimeCST,TemperatureF,Dew PointF,Humidity,Sea Level PressureIn,VisibilityMPH,Wind Direction,Wind SpeedMPH,Gust SpeedMPH,PrecipitationIn,Events,Conditions,WindDirDegrees,DateUTC
12:15 AM,52.7,42.1,67,30.16,10.0,East,3.5,-,N/A,,Mostly Cloudy,90,2013-01-08 06:15:00
12:35 AM,52.9,42.1,67,30.15,10.0,East,4.6,-,N/A,,Mostly Cloudy,80,2013-01-08 06:35:00
12:55 AM,52.9,43.2,70,30.15,10.0,East,3.5,-,N/A,,Scattered Clouds,80,2013-01-08 06:55:00
1:15 AM,52.7,43.7,71,30.14,10.0,Calm,Calm,-,N/A,,Scattered Clouds,0,2013-01-08 07:15:00
1:35 AM,52.7,43.3,70,30.14,10.0,ENE,3.5,-,N/A,,Clear,60,2013-01-08 07:35:00
1:55 AM,52.7,43.0,70,30.14,10.0,ENE,3.5,-,N/A,,Scattered Clouds,60,2013-01-08 07:55:00
2:15 AM,52.7,42.8,69,30.13,10.0,ENE,4.6,-,N/A,,Scattered Clouds,70,2013-01-08 08:15:00
2:35 AM,52.3,42.1,68,30.13,10.0,East,4.6,-,N/A,,Scattered Clouds,80,2013-01-08 08:35:00
2:55 AM,52.0,42.1,69,30.11,10.0,ENE,4.6,-,N/A,,Clear,60,2013-01-08 08:55:00
3:15 AM,52.2,41.9,68,30.11,10.0,ENE,5.8,-,N/A,,Clear,70,2013-01-08 09:15:00
3:35 AM,52.0,41.7,68,30.12,10.0,Calm,Calm,-,N/A,,Scattered Clouds,0,2013-01-08 09:35:00
3:55 AM,52.2,41.7,68,30.12,10.0,Calm,Calm,-,N/A,,Scattered Clouds,0,2013-01-08 09:55:00
4:15 AM,52.2,41.9,68,30.12,10.0,Calm,Calm,-,N/A,,Scattered Clouds,0,2013-01-08 10:15:00
4:35 AM,52.2,41.9,68,30.11,10.0,ENE,4.6,-,N/A,,Mostly Cloudy,70,2013-01-08 10:35:00
4:55 AM,52.7,42.3,68,30.11,10.0,ENE,4.6,-,N/A,,Overcast,70,2013-01-08 10:55:00
5:15 AM,52.3,42.8,70,30.11,10.0,ENE,6.9,-,N/A,,Overcast,70,2013-01-08 11:15:00
5:35 AM,52.0,43.3,72,30.11,10.0,ENE,5.8,-,N/A,,Mostly Cloudy,70,2013-01-08 11:35:00
5:55 AM,52.0,43.9,74,30.12,10.0,ENE,4.6,-,N/A,,Scattered Clouds,70,2013-01-08 11:55:00
6:15 AM,51.8,44.6,76,30.13,10.0,ENE,5.8,-,N/A,,Clear,60,2013-01-08 12:15:00
6:35 AM,51.8,45.5,79,30.13,10.0,ENE,5.8,-,N/A,,Clear,70,2013-01-08 12:35:00
6:55 AM,52.0,45.7,79,30.13,10.0,ENE,9.2,-,N/A,,Clear,70,2013-01-08 12:55:00
7:35 AM,52.0,46.2,81,30.15,10.0,ENE,6.9,-,N/A,,Clear,70,2013-01-08 13:35:00
8:15 AM,52.9,46.8,80,30.17,10.0,ENE,4.6,-,N/A,,Scattered Clouds,70,2013-01-08 14:15:00
8:35 AM,53.6,47.3,79,30.18,10.0,East,4.6,-,N/A,,Mostly Cloudy,90,2013-01-08 14:35:00
8:55 AM,53.2,48.2,83,30.18,10.0,East,3.5,-,N/A,Rain,Light Rain,90,2013-01-08 14:55:00
9:15 AM,53.2,48.7,85,30.18,10.0,East,4.6,-,N/A,Rain,Light Rain,80,2013-01-08 15:15:00
9:35 AM,53.8,49.8,86,30.18,10.0,NE,4.6,-,N/A,,Mostly Cloudy,50,2013-01-08 15:35:00
9:55 AM,54.5,50.0,85,30.19,10.0,Calm,Calm,-,N/A,,Overcast,0,2013-01-08 15:55:00
10:15 AM,54.9,50.4,85,30.19,10.0,East,6.9,-,N/A,,Overcast,90,2013-01-08 16:15:00
10:35 AM,54.9,51.3,88,30.20,10.0,East,3.5,-,N/A,,Overcast,80,2013-01-08 16:35:00
10:55 AM,55.2,51.8,88,30.19,10.0,ENE,4.6,-,N/A,Rain,Light Rain,60,2013-01-08 16:55:00
11:15 AM,54.5,51.4,89,30.18,10.0,NE,4.6,-,N/A,,Overcast,50,2013-01-08 17:15:00
11:35 AM,54.5,52.0,91,30.16,10.0,NE,5.8,-,N/A,Rain,Light Rain,50,2013-01-08 17:35:00
11:55 AM,54.3,52.7,94,30.14,7.0,ENE,8.1,-,N/A,Rain,Light Rain,60,2013-01-08 17:55:00
12:15 PM,55.0,53.6,95,30.13,10.0,ENE,6.9,-,0.01,Rain,Light Rain,60,2013-01-08 18:15:00
12:35 PM,55.8,54.9,97,30.12,7.0,ENE,9.2,-,0.01,,Overcast,70,2013-01-08 18:35:00
12:55 PM,56.3,55.4,97,30.11,7.0,ENE,8.1,-,0.01,,Drizzle,70,2013-01-08 18:55:00
1:15 PM,56.3,55.6,97,30.11,5.0,North,-9999.0,-,N/A,,Overcast,0,2013-01-08 19:15:00
1:55 PM,56.8,56.3,98,30.10,7.0,East,8.1,-,0.01,,Light Drizzle,80,2013-01-08 19:55:00
2:15 PM,57.2,56.7,98,30.09,5.0,North,-9999.0,-,N/A,Rain,Light Rain,0,2013-01-08 20:15:00
2:35 PM,56.8,56.5,99,30.10,2.0,North,-9999.0,-,0.10,Rain,Heavy Rain,0,2013-01-08 20:35:00
2:55 PM,57.2,56.7,98,30.10,3.0,Calm,Calm,-,0.22,Rain,Rain,0,2013-01-08 20:55:00
3:15 PM,57.2,56.7,98,30.10,1.5,North,-9999.0,-,0.15,Rain,Heavy Rain,0,2013-01-08 21:15:00
3:35 PM,57.2,56.8,99,30.09,1.5,ENE,5.8,-,0.46,Rain-Thunderstorm,Heavy Thunderstorms and Rain,60,2013-01-08 21:35:00
3:55 PM,57.4,57.2,99,30.09,1.5,East,8.1,-,0.68,Rain,Heavy Rain,80,2013-01-08 21:55:00
4:15 PM,57.7,57.4,99,30.08,1.8,NE,6.9,-,0.20,Rain,Heavy Rain,50,2013-01-08 22:15:00
4:35 PM,59.0,58.6,99,30.08,10.0,NE,8.1,-,0.26,Rain,Light Rain,50,2013-01-08 22:35:00
4:55 PM,59.9,59.0,97,30.09,10.0,NE,6.9,-,0.28,Rain,Rain,40,2013-01-08 22:55:00
5:15 PM,59.2,58.6,98,30.08,7.0,ENE,5.8,-,0.03,Rain,Heavy Rain,70,2013-01-08 23:15:00
5:35 PM,59.0,58.6,99,30.09,10.0,ENE,4.6,-,0.08,Rain,Light Rain,70,2013-01-08 23:35:00
5:55 PM,59.2,59.0,99,30.10,7.0,ENE,4.6,-,0.11,Rain,Rain,60,2013-01-08 23:55:00
6:35 PM,59.4,59.0,99,30.09,7.0,ENE,6.9,-,0.18,Rain,Rain,60,2013-01-09 00:35:00
6:55 PM,59.4,59.0,99,30.09,7.0,ENE,6.9,-,0.22,Rain,Rain,60,2013-01-09 00:55:00
7:15 PM,59.5,59.2,99,30.09,5.0,ENE,6.9,-,0.08,Rain,Rain,60,2013-01-09 01:15:00
7:35 PM,59.5,59.2,99,30.08,5.0,NE,6.9,-,0.15,Rain,Heavy Rain,50,2013-01-09 01:35:00
7:55 PM,59.9,59.5,99,30.10,5.0,NE,5.8,-,0.25,Rain,Heavy Rain,50,2013-01-09 01:55:00
8:15 PM,60.1,59.9,99,30.11,4.0,NE,6.9,-,0.12,Rain,Heavy Rain,40,2013-01-09 02:15:00
8:35 PM,60.1,59.9,99,30.11,2.5,NE,5.8,-,0.40,Rain,Heavy Rain,40,2013-01-09 02:35:00
8:55 PM,60.6,60.3,99,30.11,4.0,NNE,8.1,-,0.57,Rain,Heavy Rain,30,2013-01-09 02:55:00
9:15 PM,60.4,60.3,99,30.11,5.0,NNE,5.8,-,0.08,Rain,Rain,30,2013-01-09 03:15:00
9:35 PM,60.8,60.4,99,30.12,4.0,NNE,3.5,-,0.22,Rain,Heavy Rain,30,2013-01-09 03:35:00
9:55 PM,60.8,60.4,99,30.12,5.0,NE,4.6,-,0.32,Rain,Heavy Rain,40,2013-01-09 03:55:00
10:15 PM,60.8,60.4,99,30.11,5.0,NE,4.6,-,0.07,Rain,Heavy Rain,50,2013-01-09 04:15:00
10:35 PM,60.8,60.4,99,30.11,5.0,NE,9.2,-,0.18,Rain,Heavy Rain,50,2013-01-09 04:35:00
11:15 PM,60.8,60.8,100,30.10,5.0,NE,6.9,-,0.07,Rain,Rain,50,2013-01-09 05:15:00